User: anonymous   Login
Location: Unspecified
(0.0000°N, 0.0000°E)
Time: 22:21:41
(UTC+00:00)
Language:

WGS F3 (USA 211) - Orbit

View from above orbital plane
View from above orbital plane
View from above satellite
View from above satellite

Ground track
Ground track

The orbit data is extracted from the following two-line orbital elements,

1 36108U 09068A   17302.49210011 0.00000000  00000-0  00000-0 0    05
2 36108   0.0097 203.1159 0001615  26.9839 333.0493  1.00270000    02
Epoch (UTC): 29 October 2017 11:48:37
Eccentricity: 0.0001615
inclination: 0.0097°
perigee height: 35780 km
apogee height: 35793 km
right ascension of ascending node: 203.1159°
argument of perigee: 26.9839°
revolutions per day: 1.00270000
mean anomaly at epoch: 333.0493°
orbit number at epoch: 0

The dashed part of the orbit path shows where the satellite is in the earth's shadow,  

DLR